Regional Weather Roundup
Issued by NWS Newport/Morehead, NC

Current Version | Previous Version | Graphics & Text | Print | Product List | Glossary Off
Versions: 1 2 3 4 5 6 7 8 9 10 11 12 13 14 15 16 17 18 19 20 21 22 23 24 25 26 27 28 29 30 31 32 33 34 35 36 37 38 39 40 41 42 43 44 45 46 47 48 49 50

000
ASUS42 KMHX 042113
RWRMHX
WEATHER ROUNDUP FOR EASTERN NORTH CAROLINA
NATIONAL WEATHER SERVICE NEWPORT/MOREHEAD CITY NC
500 PM EDT FRI SEP 04 2015

NOTE: "FAIR" INDICATES FEW OR NO CLOUDS BELOW 12,000 FEET
WITH NO SIGNIFICANT WEATHER AND/OR OBSTRUCTIONS TO VISIBILITY

NCZ015>017-031-032-045>047-102-103-042200-
NORTH COAST

CITY           SKY/WX    TMP DP  RH WIND       PRES   REMARKS
EDENTON        FAIR      79  70  72 NE5       29.97S
ELIZABETH CITY LGT RAIN  82  71  69 NE14      29.97S
KITTY HAWK     FAIR      84  73  71 NE7       29.96R
MANTEO         PTSUNNY   81  74  78 NE13      29.97R

$$

NCZ045>047-081-094-103-104-042200-
CENTRAL COAST

CITY           SKY/WX    TMP DP  RH WIND       PRES   REMARKS
FRISCO         FAIR      86  74  67 N5        29.94S
SWANQUARTER      N/A     88 N/A N/A NE6       29.88F

$$

NCZ095-097-098-100-101-042200-
SOUTHERN COAST

CITY           SKY/WX    TMP DP  RH WIND       PRES   REMARKS
BEAUFORT       FAIR      85  76  74 S8        29.93S
CEDAR ISLAND     N/A     88 N/A N/A N3        29.97S
JACKSONVILLE   FAIR      90  68  48 E6        29.93S
PINEY ISLAND   FAIR     N/A N/A N/A NW6       29.93S
WILMINGTON     FAIR      88  67  49 SE6       29.93F


$$

NCZ011>013-027>030-043-044-078>080-089-090>093-098-042200-
COASTAL PLAIN

CITY           SKY/WX    TMP DP  RH WIND       PRES   REMARKS
AHOSKIE        FAIR      83  72  69 E3        29.98R
CLINTON        FAIR      92  68  45 CALM      29.95R
ELIZABETHTOWN  FAIR      91  68  45 CALM      29.93F
GOLDSBORO      FAIR      90  73  56 E17G26    29.94R
GREENVILLE     FAIR      88  70  55 NE7       29.98R
HAVELOCK       FAIR      90  70  51 NE6       29.93F THUNDER
KENANSVILLE      N/A     90  66  45 CALM      29.95S
KINSTON        FAIR      84  72  65 NW7       29.96R
NEW BERN       FAIR      90  70  51 VRB3      29.94S
RICHLANDS      FAIR      90  70  51 E7        29.94S
ROCKY MOUNT    FAIR      77  72  84 N9        29.99R THUNDER HAZE
WASHINGTON     FAIR      82  71  70 N8        29.96R
WHITEVILLE     FAIR      91  68  47 SE6       29.93S

$$

AMZ130-135-150-152-154-156-158-170-250-252-270-ANZ085-086-088-633-658-670-042200-
MARINE OBSERVATIONS

STATION/POSITION TIME  TEMP    WIND        PRES    WAVE   SWELL
                       AIR SEA DIR/SP/G            HT/PER HT/PER
                 (UTC) (F)     (DEG/KT/KT) (MB)    (FT/S) (FT/S)
CHESAPEAKE LIGHT 2100   79      70/ 17/ 18 1016.2
64 E VA BEACH    2050   81 81   60/ 16/ 19 1014.5    2/ 3   2/ 9
DUCK             2000   80 81   40/ 15/ 16 1013.9
2 E DUCK         2011      81                N/A     3/ 3
OREGON INLET     2000   81 83   20/ 11/ 13 1014.1
13E OREGON INLT  2100      81                N/A     2/13
HATTERAS CG      2000   84 84   10/  9/ 12 1013.7
DIAMOND BUOY     2050   83 85   20/  6/  8 1013.8    1/12   2/12
CAPE LOOKOUT     2100   83     160/  5/  5 1013.4
BEAUFORT LAB     2000   86 82  180/  7/  8 1013.1
30 SE NEW RVR IN 2008   83 83  240/  2/  2 1014.2
30 SE NEW RVR IN 2025      83                N/A     1/11
27 SE WRIGHTSVLE 2000   81 83   70/  4/  4   N/A
5 SE WRIGHTSVLE  2008   84 83  140/  6/  8 1014.0
225 S CAPE HAT   2050   83 85  360/  6/  8 1013.0    1/11   2/11
41 SE CHARLESTON 2050   83 85   80/  4/  6 1013.6    1/ 7   2/ 7

$$


USA.gov is the U.S. government's official web portal to all federal, state and local government web resources and services.